[Date Prev][Date Next][Thread Prev][Thread Next] - [Date Index][Thread Index][Author Index]
2 Line ISS Keps 3-1
- Subject: [sarex] 2 Line ISS Keps 3-1
- From: "Dave Larsen PhD" <doc@xxxxxxxxxxx>
- Date: Tue, 1 Mar 2005 04:29:57 -0800
ISS
1 25544U 98067A 05060.34552083 .00016015 00000-0 13288-3 0 9180
2 25544 51.6455 92.5152 0004252 146.9732 38.3878 15.70375257358721
----
Via the sarex mailing list at AMSAT.ORG courtesy of AMSAT-NA.
To unsubscribe, send "unsubscribe sarex" to Majordomo@amsat.org
AMSAT Home